Home > Time Zones > World Clock > Weather > Iran > Yazd > Past weeks

Flag for Iran Weather past 2 weeks in Yazd, Iran

Now
79 °F

Clear.


Feels Like: 77 °F
Forecast: 70 / 96 °F
Wind: 5 mph from Northwest

Location: Yazd Airport

Current Time: Sep 23, 2014 at 2:46:16 AM

Latest Report: Sep 23, 2014 at 1:30 AM


Visibility: 10 mi

Pressure: 29.95 "Hg

Humidity: 12%

Dew point: 23 °F

Location of YazdLocation

Historic Weather in Yazd — Graph

°F

Yazd temperature yesterday

Maximum temperature yesterday: 97 °F (at 1:30 PM)
Minimum temperature yesterday: 73 °F (at 2:30 AM)
Average temperature yesterday: 86 °F

Past Weeks' High & Low Weather Summary

 TemperatureHumidityPressure
High102 °F (Sep 9, 3:00 PM)19% (Sep 8, 7:30 AM)30.15 "Hg (Sep 8, 7:30 AM)
Low66 °F (Sep 14, 6:30 AM)2% (Sep 15, 3:30 PM)29.80 "Hg (Sep 16, 4:30 PM)
Average86 °F9%29.96 "Hg
* Reported Sep 8 2:30 AM — Sep 23 1:30 AM, Yazd, Weather by CustomWeather, © 2014

Note: Actual official high and low records may vary slightly from our data, if they occured in-between our weather recording intervals... More about our weather records

Advertising

Yazd weather history for previous 24 hours

 ConditionsComfort  
Time TempWeatherWind HumidityBarometerVisibility
1:30 AM
Sep 23
79 °FClear.5 mph12%29.95 "Hg10 mi
12:30 AM79 °FClear.2 mph12%29.95 "Hg10 mi
11:30 PM
Sep 22
79 °FClear.5 mph12%29.95 "Hg10 mi
11:00 PM82 °FClear.5 mph9%29.95 "Hg10 mi
10:30 PM82 °FClear.7 mph11%29.95 "Hg10 mi
10:00 PM82 °FClear.2 mph13%29.95 "Hg10 mi
9:30 PM84 °FClear.5 mph11%29.95 "Hg10 mi
9:00 PM81 °FClear.2 mph11%29.95 "Hg10 mi
8:30 PM84 °FClear.5 mph12%29.92 "Hg10 mi
8:00 PM84 °FClear.5 mph11%29.92 "Hg10 mi
7:30 PM88 °FClear.No wind7%29.92 "Hg10 mi
7:00 PM88 °FClear.No wind7%29.92 "Hg10 mi
6:30 PM91 °FClear.No wind7%29.92 "Hg10 mi
6:00 PM93 °FPassing clouds.2 mph7%29.92 "HgN/A
5:30 PM95 °FSunny.7 mph6%29.92 "Hg10 mi
5:00 PM97 °FSunny.2 mph5%29.92 "Hg10 mi
4:20 PM97 °FSunny.5 mph6%29.92 "Hg10 mi
3:30 PM97 °FSunny.9 mph6%29.92 "Hg10 mi
2:30 PM97 °FSunny.12 mph6%29.92 "Hg10 mi
1:30 PM97 °FSunny.9 mph6%29.92 "Hg10 mi
12:30 PM95 °FSunny.7 mph7%29.95 "Hg10 mi
11:30 AM95 °FSunny.12 mph7%29.98 "Hg10 mi
11:00 AM93 °FSunny.12 mph7%29.98 "Hg10 mi
10:30 AM91 °FSunny.9 mph8%30.01 "Hg10 mi
9:30 AM90 °FSunny.5 mph9%30.01 "Hg10 mi
9:00 AM88 °FSunny.5 mph10%30.01 "Hg10 mi
8:30 AM86 °FSunny.2 mph11%30.01 "Hg10 mi
8:00 AM84 °FSunny.5 mph12%30.01 "Hg10 mi
7:30 AM81 °FSunny.7 mph14%30.01 "Hg10 mi
7:00 AM79 °FSunny.7 mph13%29.98 "Hg10 mi
6:30 AM79 °FSunny.9 mph12%29.98 "Hg10 mi
6:00 AM75 °FClear.7 mph14%29.95 "Hg10 mi
5:30 AM73 °FClear.7 mph14%29.95 "Hg10 mi
4:30 AM73 °FClear.No wind14%29.95 "Hg10 mi
3:30 AM75 °FClear.No wind15%29.92 "Hg10 mi
2:30 AM73 °FClear.No wind16%29.92 "Hg10 mi
Weather by CustomWeather, © 2014

See weather overviewHow to use our weather pages